Home   Weather   Lewiston   Past weeks

Flag for USA Past Weather in Lewiston, Idaho, USA — Yesterday and Last 2 Weeks

Now
26 °F

Light snow. Mostly cloudy.


Feels Like: 15 °F
Forecast: 28 / 36 °F
Wind: 13 mph from West

Location: Lewiston-Nez Perce County Airport

Current Time: Dec 10, 2016 at 6:42:56 am

Latest Report: Dec 10, 2016 at 5:56 am


Visibility: 2 mi

Pressure: 29.90 "Hg

Humidity: 81%

Dew Point: 21 °F

Location of LewistonLocation

Past Weather in Lewiston — Graph

°F

Lewiston Temperature Yesterday

Maximum temperature yesterday: 28 °F (at 2:56 pm)
Minimum temperature yesterday: 24 °F (at 1:56 am)
Average temperature yesterday: 26 °F

High & Low Weather Summary for the Past Weeks

 TemperatureHumidityPressure
High50 °F (Dec 3, 11:56 am)100% (Nov 29, 7:56 am)30.53 "Hg (Nov 29, 7:56 am)
Low12 °F (Dec 8, 6:56 am)48% (Dec 1, 1:56 pm)29.47 "Hg (Nov 26, 10:56 pm)
Average35 °F75%30.06 "Hg
* Reported Nov 25 4:56 am — Dec 10 4:56 am, Lewiston, Weather by CustomWeather, © 2016

Note: Actual official high and low records may vary slightly from our data, if they occured in-between our weather recording intervals... More about our weather records

Advertising

Lewiston Weather History for the Previous 24 Hours

Scroll right to see more
 ConditionsComfort  
Time TempWeatherWind HumidityBarometerVisibility
4:56 am
Sat, Dec 10
27 °FMostly cloudy.15 mph89%29.86 "Hg10 mi
3:56 am26 °FLow clouds.6 mph88%29.85 "Hg7 mi
2:56 am26 °FLow clouds.5 mph88%29.86 "Hg8 mi
1:56 am26 °FLow clouds.No wind88%29.89 "Hg10 mi
12:56 am26 °FOvercast.3 mph88%29.93 "Hg10 mi
11:56 pm
Fri, Dec 9
26 °FLow clouds.No wind88%29.96 "Hg10 mi
10:56 pm26 °FOvercast.3 mph84%30.00 "Hg10 mi
9:56 pm26 °FLow clouds.No wind88%30.02 "Hg10 mi
8:56 pm26 °FOvercast.No wind88%30.02 "Hg10 mi
7:56 pm26 °FOvercast.No wind84%30.03 "Hg10 mi
6:56 pm26 °FLight snow. Low clouds.5 mph88%30.05 "Hg9 mi
5:56 pm26 °FLow clouds.3 mph88%30.05 "Hg8 mi
4:56 pm27 °FLight snow. Overcast.No wind92%30.07 "Hg7 mi
3:56 pm28 °FLight snow. Ice fog.No wind89%30.09 "Hg2 mi
2:56 pm28 °FLow clouds.3 mph89%30.10 "Hg9 mi
1:56 pm27 °FIce fog.5 mph89%30.10 "Hg5 mi
12:56 pm27 °FIce fog.5 mph89%30.12 "Hg4 mi
12:02 pm27 °FLight snow. Ice fog.No wind85%30.09 "Hg1 mi
10:56 am27 °FOvercast.3 mph89%30.16 "Hg7 mi
9:56 am26 °FIce fog.No wind88%30.18 "Hg6 mi
8:56 am27 °FCloudy.6 mph81%30.19 "Hg10 mi
7:56 am25 °FMore clouds than sun.No wind85%30.20 "Hg10 mi
6:56 am24 °FOvercast.No wind88%30.22 "Hg10 mi
Weather by CustomWeather, © 2016

See weather overviewHow to use our weather pages